sat.trackr.live / text

‹ back to catalog

STARLINK-5520

NORAD 57219 · 2023-094B

PAYLOAD ACTIVE UNKNOWN

§ Identity

Operator
Country
US
Launch date
2023-07-07
Launch site
AFWTR
Launch vehicle
Mass (kg)
RCS (m²)

Purposes: comms

External: N2YO · Heavens-Above · Gunter

§ Orbital elements

Epoch: 2026-09-20T15:42:11.746368Z

Period
94.27 min
Inclination
43.0027°
Eccentricity
0.0001582
Mean motion
15.27587680 rev/d
Perigee alt
481.9 km
Apogee alt
484.1 km
Semi-major
6,861.2 km
B*
6.0281e-5
RAAN
13.0000°
Arg perigee
269.2740°
Mean anomaly
90.7930°
Rev number
17,689

§ Raw data

STARLINK-55201 57219U 23094B   26263.65430262  .00001397  00000+0  60281-4 0  99992 57219  43.0027  13.0000 0001582 269.2740  90.7930 15.27587680176890

JSON: /api/v1/satellites/57219 · /tle

For live sub-satellite position, see the globe view (requires WebGL).

§ Visibility from observer

Set your observer location to see the next 7 days of passes ≥ 10°. The values pass through the URL so the page stays shareable.

No JS? Fill the form by hand. The geolocation button needs JavaScript.